Regional Weather Roundup
Issued by NWS Cleveland, OH

Home | Current Version | Previous Version | Graphics & Text | Print | Product List | Glossary On
Versions: 1 2 3 4 5 6 7 8 9 10 11 12 13 14 15 16 17 18 19 20 21 22 23 24 25 26 27 28 29 30 31 32 33 34 35 36 37 38 39 40 41 42 43 44 45 46 47 48 49 50
000
ASUS41 KCLE 011300
RWRCLE
OHIO REGIONAL WEATHER ROUNDUP
NATIONAL WEATHER SERVICE WILMINGTON, OH
900 AM EDT TUE SEP 01 2015

NOTE: "FAIR" INDICATES FEW OR NO CLOUDS BELOW 12,000 FEET WITH NO
SIGNIFICANT WEATHER AND/OR OBSTRUCTIONS TO VISIBILITY.

OHZ001>008-015>018-024>027-034-035-043-044-011400-
   NORTHWEST OHIO

CITY           SKY/WX    TMP DP  RH WIND       PRES   REMARKS
DEFIANCE       SUNNY     73  69  87 SW3       30.12S FOG
FINDLAY        SUNNY     73  69  87 SW5       30.12S FOG
TOLEDO EXPRESS SUNNY     72  69  90 W6        30.11S FOG
TOLEDO EXEC    SUNNY     72  67  84 SW6       30.12S HAZE
LIMA           SUNNY     72  67  84 SW5       30.15R HAZE
$$

OHZ009>014-019>023-028>033-038-089-011400-
   NORTHEAST OHIO

CITY           SKY/WX    TMP DP  RH WIND       PRES   REMARKS
CLE-HOPKINS    MOSUNNY   73  68  84 SW5       30.14S
CLE-LAKEFRONT  SUNNY     76  68  76 S5        30.11R
CUY CO. ARPT   SUNNY     75  72  88 SW6       30.13R HAZE
LORAIN-ELYRIA  SUNNY     72  68  87 W3        30.13S FOG
ASHTABULA      SUNNY     69  68  96 CALM      30.13S FOG
AKRON-CANTON   MOSUNNY   74  68  81 W5        30.15R HAZE
WOOSTER        SUNNY     70  68  93 CALM      30.16R FOG
MANSFIELD      SUNNY     73  69  87 SW5       30.16R
YOUNGSTOWN     MOSUNNY   72  67  84 S3        30.14S HAZE
$$

OHZ042-051>053-060>062-070>072-077>081-011400-
  SOUTHWEST OHIO

CITY           SKY/WX    TMP DP  RH WIND       PRES   REMARKS
CINC-COVINGTON SUNNY     73  68  84 CALM      30.16S
CINC-LUNKEN    SUNNY     71  69  93 CALM      30.16S FOG
HAMILTON       SUNNY     73  69  87 CALM      30.17R
DAYTON         NOT AVBL
WRIGHT-PAT AFB SUNNY     72  69  90 S2        30.15S
DAYTON GENERAL SUNNY     73  68  84 CALM      30.16R
WILMINGTON     SUNNY     72  67  84 CALM      30.17R HAZE
$$

OHZ036-037-039>041-045>050-054>059-063>069-073>076-082>088-011400-
  CENTRAL AND SOUTHEAST OHIO

CITY           SKY/WX    TMP DP  RH WIND       PRES   REMARKS
COLUMBUS       MOSUNNY   71  67  87 CALM      30.15R
OSU AIRPORT    MOSUNNY   73  68  84 CALM      30.15R HAZE
BOLTON FIELD   NOT AVBL
RICKENBACK AFB NOT AVBL
NEWARK         SUNNY     71  67  87 CALM      30.15S FOG
MARION         SUNNY     71  68  90 CALM      30.15S FOG
LANCASTER      SUNNY     73  67  81 CALM      30.16R
ZANESVILLE     SUNNY     69  65  86 CALM      30.16R FOG
NEW PHILLY     PTSUNNY   68  67  96 CALM      30.16R FOG
$$



USA.gov is the U.S. government's official web portal to all federal, state and local government web resources and services.